This is the latest recevied weather packets stored in our database for station/object DO8TBO-15. If no packets are shown the sender has not sent any weather packets the latest 10 day(s).
| Time | Temp. | Humidity | Pressure | Rain* | Wind** | Luminosity | Snow |
|---|---|---|---|---|---|---|---|
| 1777505137 | 5.56° C | - | 1029.3 hPa | 0 mm | - | - | - |
| 1777504532 | 5.56° C | - | 1029.2 hPa | 0 mm | - | - | - |
| 1777503959 | 5.56° C | - | 1029 hPa | 0 mm | - | - | - |
| 1777503355 | 5.56° C | - | 1028.9 hPa | 0 mm | - | - | - |
| 1777502751 | 6.11° C | - | 1028.9 hPa | 0 mm | - | - | - |
| 1777502147 | 6.11° C | - | 1028.8 hPa | 0 mm | - | - | - |
| 1777501543 | 6.11° C | - | 1028.7 hPa | 0 mm | - | - | - |
| 1777500940 | 6.11° C | - | 1028.6 hPa | 0 mm | - | - | - |
| 1777500336 | 6.11° C | - | 1028.6 hPa | 0 mm | - | - | - |
| 1777499733 | 6.67° C | - | 1028.5 hPa | 0 mm | - | - | - |
| 1777499130 | 6.67° C | - | 1028.4 hPa | 0 mm | - | - | - |
| 1777498526 | 7.22° C | - | 1028.3 hPa | 0 mm | - | - | - |
| 1777497923 | 7.22° C | - | 1028.1 hPa | 0 mm | - | - | - |
| 1777497318 | 7.78° C | - | 1028 hPa | 0 mm | - | - | - |
| 1777496774 | 7.78° C | - | 1028 hPa | 0 mm | - | - | - |
| 1777496171 | 8.33° C | - | 1027.7 hPa | 0 mm | - | - | - |
| 1777495568 | 8.33° C | - | 1027.6 hPa | 0 mm | - | - | - |
| 1777494963 | 8.33° C | - | 1027.4 hPa | 0 mm | - | - | - |
| 1777494360 | 8.89° C | - | 1027.5 hPa | 0 mm | - | - | - |
| 1777493756 | 8.89° C | - | 1027.5 hPa | 0 mm | - | - | - |
| 1777493152 | 8.89° C | - | 1027.4 hPa | 0 mm | - | - | - |
| 1777492549 | 8.89° C | - | 1027.4 hPa | 0 mm | - | - | - |
| 1777491944 | 9.44° C | - | 1027.3 hPa | 0 mm | - | - | - |
| 1777491342 | 9.44° C | - | 1027 hPa | 0 mm | - | - | - |
| 1777490737 | 9.44° C | - | 1026.9 hPa | 0 mm | - | - | - |
* Rain latest hour (hover to see other rain measurements)
** Current wind speed in m/s (hover to see current wind gust speed)